JST565 YBBN-YMML

Flight info

Callsign JST565
Flight time 2h 1m
Altitude 38000
Route BN H91 SANEG Q35 DORSU H119 ML
Aircraft A20N/M-SDE2E3FGHIRWXY/LB1

Departure

Time 2026-05-06 10:04
Airport Brisbane International Airport (YBBN)

Arrival

Time 2026-05-06 12:06
Airport Melbourne Airport (YMML)
Time Latitude Longitude Altitude Speed Heading
2026-05-06 09:47 -27.38640 153.12229 17 ft 0 kts 310°
2026-05-06 09:57 -27.38643 153.12233 17 ft 2 kts 283°
2026-05-06 09:57 -27.38642 153.12246 19 ft 2 kts 209°
2026-05-06 09:57 -27.38640 153.12248 20 ft 0 kts 191°
2026-05-06 10:00 -27.38641 153.12247 17 ft 0 kts 191°
2026-05-06 10:01 -27.38653 153.12251 17 ft 3 kts 153°
2026-05-06 10:01 -27.38676 153.12312 18 ft 14 kts 98°
2026-05-06 10:01 -27.38621 153.12403 18 ft 17 kts 27°
2026-05-06 10:01 -27.38498 153.12472 18 ft 22 kts 24°
2026-05-06 10:02 -27.38352 153.12557 18 ft 26 kts 30°
2026-05-06 10:02 -27.38181 153.12656 19 ft 29 kts 26°
2026-05-06 10:02 -27.38021 153.12746 18 ft 19 kts 28°
2026-05-06 10:02 -27.38004 153.12845 19 ft 14 kts 118°
2026-05-06 10:03 -27.38037 153.12913 19 ft 16 kts 117°
2026-05-06 10:03 -27.38060 153.12962 19 ft 0 kts 117°
2026-05-06 10:03 -27.38061 153.12964 19 ft 2 kts 117°
2026-05-06 10:03 -27.38096 153.13016 21 ft 16 kts 144°
2026-05-06 10:04 -27.38266 153.12974 23 ft 52 kts 205°
2026-05-06 10:04 -27.38851 153.12651 20 ft 131 kts 208°
2026-05-06 10:04 -27.39806 153.12092 325 ft 164 kts 207°
2026-05-06 10:04 -27.41246 153.11224 1155 ft 192 kts 206°
2026-05-06 10:05 -27.42070 153.10739 1653 ft 200 kts 204°
2026-05-06 10:05 -27.43851 153.10036 2679 ft 208 kts 176°
2026-05-06 10:05 -27.44823 153.10205 3296 ft 215 kts 164°
2026-05-06 10:05 -27.46261 153.10853 4129 ft 229 kts 144°
2026-05-06 10:06 -27.47441 153.12090 5161 ft 236 kts 134°
2026-05-06 10:06 -27.48569 153.13472 6185 ft 244 kts 136°
2026-05-06 10:06 -27.50008 153.14477 7144 ft 247 kts 166°
2026-05-06 10:06 -27.51705 153.14568 8133 ft 247 kts 192°
2026-05-06 10:07 -27.53442 153.14153 8846 ft 266 kts 195°
2026-05-06 10:07 -27.55311 153.13641 9359 ft 285 kts 197°
2026-05-06 10:07 -27.57210 153.12909 10145 ft 291 kts 202°
2026-05-06 10:07 -27.59150 153.12113 10706 ft 307 kts 201°
2026-05-06 10:08 -27.61245 153.11280 10981 ft 331 kts 201°
2026-05-06 10:08 -27.63491 153.10442 11450 ft 346 kts 199°
2026-05-06 10:08 -27.65820 153.09674 12230 ft 351 kts 198°
2026-05-06 10:08 -27.68183 153.08918 13002 ft 356 kts 198°
2026-05-06 10:09 -27.70544 153.08154 13712 ft 361 kts 199°
2026-05-06 10:09 -27.72972 153.07357 14026 ft 365 kts 199°
2026-05-06 10:09 -27.75409 153.06549 14120 ft 364 kts 199°
2026-05-06 10:09 -27.77838 153.05738 14120 ft 364 kts 199°
2026-05-06 10:10 -27.80249 153.04875 14121 ft 363 kts 204°
2026-05-06 10:10 -27.82528 153.03684 14126 ft 360 kts 212°
2026-05-06 10:10 -27.84623 153.02162 14127 ft 357 kts 219°
2026-05-06 10:10 -27.86645 153.00528 14128 ft 358 kts 218°
2026-05-06 10:11 -27.88678 152.98902 14126 ft 358 kts 218°
2026-05-06 10:11 -27.90711 152.97282 14126 ft 357 kts 218°
2026-05-06 10:11 -27.92742 152.95662 14125 ft 358 kts 218°
2026-05-06 10:11 -27.94774 152.94040 14125 ft 358 kts 218°
2026-05-06 10:12 -27.96805 152.92417 14132 ft 358 kts 218°
2026-05-06 10:12 -27.98838 152.90791 14134 ft 358 kts 218°
2026-05-06 10:12 -28.00870 152.89164 14168 ft 360 kts 218°
2026-05-06 10:12 -28.02920 152.87521 14665 ft 362 kts 218°
2026-05-06 10:13 -28.04973 152.85876 15473 ft 363 kts 219°
2026-05-06 10:13 -28.07044 152.84216 16152 ft 367 kts 219°
2026-05-06 10:13 -28.09140 152.82534 16857 ft 371 kts 219°
2026-05-06 10:13 -28.11254 152.80838 17523 ft 375 kts 219°
2026-05-06 10:14 -28.13391 152.79123 18186 ft 378 kts 219°
2026-05-06 10:14 -28.15549 152.77389 18788 ft 381 kts 220°
2026-05-06 10:14 -28.17713 152.75649 19393 ft 383 kts 220°
2026-05-06 10:14 -28.19896 152.73895 19957 ft 386 kts 220°
2026-05-06 10:15 -28.22096 152.72129 20560 ft 388 kts 220°
2026-05-06 10:15 -28.24309 152.70352 21104 ft 392 kts 221°
2026-05-06 10:15 -28.26536 152.68558 21676 ft 394 kts 221°
2026-05-06 10:15 -28.28777 152.66749 22266 ft 397 kts 221°
2026-05-06 10:16 -28.31033 152.64929 22870 ft 399 kts 221°
2026-05-06 10:16 -28.33306 152.63093 23446 ft 403 kts 221°
2026-05-06 10:16 -28.35572 152.61267 23941 ft 406 kts 221°
2026-05-06 10:16 -28.37879 152.59408 24427 ft 408 kts 221°
2026-05-06 10:17 -28.40198 152.57536 24901 ft 410 kts 221°
2026-05-06 10:17 -28.42527 152.55655 25361 ft 412 kts 222°
2026-05-06 10:17 -28.44870 152.53763 25817 ft 414 kts 222°
2026-05-06 10:17 -28.47223 152.51859 26256 ft 417 kts 222°
2026-05-06 10:18 -28.49586 152.49945 26701 ft 418 kts 222°
2026-05-06 10:18 -28.51960 152.48021 27134 ft 420 kts 222°
2026-05-06 10:18 -28.54346 152.46086 27567 ft 422 kts 222°
2026-05-06 10:18 -28.56746 152.44139 27990 ft 424 kts 223°
2026-05-06 10:19 -28.59152 152.42187 28379 ft 426 kts 223°
2026-05-06 10:19 -28.61570 152.40225 28765 ft 428 kts 223°
2026-05-06 10:19 -28.63999 152.38252 29120 ft 430 kts 223°
2026-05-06 10:19 -28.66445 152.36264 29459 ft 433 kts 223°
2026-05-06 10:20 -28.68898 152.34268 29811 ft 435 kts 223°
2026-05-06 10:20 -28.71364 152.32261 30188 ft 436 kts 223°
2026-05-06 10:20 -28.73835 152.30249 30505 ft 437 kts 223°
2026-05-06 10:20 -28.76311 152.28231 30858 ft 438 kts 223°
2026-05-06 10:21 -28.78800 152.26201 31102 ft 442 kts 223°
2026-05-06 10:21 -28.81297 152.24165 31510 ft 440 kts 224°
2026-05-06 10:21 -28.83782 152.22141 31973 ft 438 kts 224°
2026-05-06 10:21 -28.86254 152.20125 32412 ft 435 kts 224°
2026-05-06 10:22 -28.88708 152.18121 32848 ft 433 kts 224°
2026-05-06 10:22 -28.91147 152.16128 33260 ft 430 kts 225°
2026-05-06 10:22 -28.93575 152.14143 33679 ft 428 kts 225°
2026-05-06 10:22 -28.95986 152.12168 34104 ft 425 kts 225°
2026-05-06 10:23 -28.98384 152.10200 34428 ft 424 kts 225°
2026-05-06 10:23 -29.00781 152.08231 34608 ft 426 kts 225°
2026-05-06 10:23 -29.03183 152.06262 34896 ft 424 kts 226°
2026-05-06 10:23 -29.05574 152.04304 35219 ft 422 kts 226°
2026-05-06 10:24 -29.07925 152.02377 35526 ft 420 kts 226°
2026-05-06 10:24 -29.10324 152.00408 35825 ft 418 kts 226°
2026-05-06 10:24 -29.12679 151.98472 36109 ft 416 kts 227°
2026-05-06 10:24 -29.15032 151.96538 36357 ft 415 kts 227°
2026-05-06 10:25 -29.17371 151.94614 36640 ft 413 kts 227°
2026-05-06 10:25 -29.19698 151.92697 36915 ft 411 kts 227°
2026-05-06 10:25 -29.24322 151.88885 37156 ft 413 kts 227°
2026-05-06 10:26 -29.26678 151.86943 37409 ft 411 kts 228°
2026-05-06 10:26 -29.28963 151.85059 37641 ft 410 kts 228°
2026-05-06 10:26 -29.31273 151.83157 37852 ft 408 kts 228°
2026-05-06 10:26 -29.33571 151.81257 38066 ft 406 kts 229°
2026-05-06 10:27 -29.38152 151.77458 38141 ft 406 kts 229°
2026-05-06 10:27 -29.42721 151.73669 38151 ft 407 kts 228°
2026-05-06 10:28 -29.47338 151.69835 38143 ft 410 kts 228°
2026-05-06 10:28 -29.52003 151.66071 38145 ft 415 kts 224°
2026-05-06 10:29 -29.57070 151.62759 38134 ft 419 kts 222°
2026-05-06 10:29 -29.62151 151.59465 38146 ft 420 kts 222°
2026-05-06 10:30 -29.67248 151.56150 38134 ft 421 kts 222°
2026-05-06 10:30 -29.72353 151.52831 38139 ft 422 kts 222°
2026-05-06 10:31 -29.77464 151.49503 38140 ft 422 kts 222°
2026-05-06 10:31 -29.82579 151.46170 38144 ft 423 kts 222°
2026-05-06 10:32 -29.87703 151.42822 38139 ft 424 kts 221°
2026-05-06 10:32 -29.92838 151.39465 38140 ft 425 kts 221°
2026-05-06 10:33 -29.97980 151.36102 38145 ft 425 kts 221°
2026-05-06 10:33 -30.03127 151.32731 38141 ft 426 kts 221°
2026-05-06 10:34 -30.08281 151.29352 38138 ft 426 kts 221°
2026-05-06 10:34 -30.13438 151.25966 38134 ft 426 kts 221°
2026-05-06 10:35 -30.18549 151.22610 38130 ft 425 kts 221°
2026-05-06 10:35 -30.23681 151.19232 38129 ft 425 kts 221°
2026-05-06 10:36 -30.28819 151.15846 38162 ft 425 kts 222°
2026-05-06 10:36 -30.33936 151.12476 38130 ft 422 kts 222°
2026-05-06 10:37 -30.39036 151.09104 38125 ft 423 kts 222°
2026-05-06 10:37 -30.44145 151.05725 38124 ft 422 kts 222°
2026-05-06 10:38 -30.49246 151.02345 38128 ft 423 kts 222°
2026-05-06 10:38 -30.54369 150.98949 38120 ft 425 kts 222°
2026-05-06 10:39 -30.59506 150.95553 38121 ft 424 kts 221°
2026-05-06 10:39 -30.64629 150.92140 38108 ft 424 kts 222°
2026-05-06 10:40 -30.69753 150.88734 38116 ft 425 kts 222°
2026-05-06 10:40 -30.74880 150.85313 38116 ft 426 kts 221°
2026-05-06 10:41 -30.80021 150.81882 38114 ft 426 kts 221°
2026-05-06 10:41 -30.85158 150.78455 38114 ft 426 kts 221°
2026-05-06 10:42 -30.90299 150.75017 38108 ft 426 kts 221°
2026-05-06 10:42 -30.95442 150.71572 38124 ft 427 kts 221°
2026-05-06 10:43 -31.00597 150.68116 38126 ft 427 kts 221°
2026-05-06 10:44 -31.07976 150.62560 38124 ft 415 kts 230°
2026-05-06 10:44 -31.12267 150.58153 38115 ft 411 kts 232°
2026-05-06 10:45 -31.16548 150.53706 38103 ft 414 kts 232°
2026-05-06 10:45 -31.20844 150.49240 38102 ft 413 kts 232°
2026-05-06 10:46 -31.25129 150.44774 38103 ft 412 kts 232°
2026-05-06 10:46 -31.29405 150.40309 38106 ft 412 kts 232°
2026-05-06 10:47 -31.33677 150.35840 38097 ft 413 kts 232°
2026-05-06 10:47 -31.37955 150.31360 38097 ft 413 kts 232°
2026-05-06 10:48 -31.42236 150.26875 38107 ft 413 kts 232°
2026-05-06 10:48 -31.46520 150.22378 38103 ft 413 kts 232°
2026-05-06 10:49 -31.50801 150.17878 38112 ft 414 kts 232°
2026-05-06 10:49 -31.55089 150.13362 38114 ft 415 kts 231°
2026-05-06 10:50 -31.59383 150.08839 38123 ft 415 kts 231°
2026-05-06 10:50 -31.63682 150.04302 38134 ft 416 kts 231°
2026-05-06 10:51 -31.67256 150.00527 38137 ft 416 kts 231°
2026-05-06 10:51 -31.71565 149.95969 38125 ft 417 kts 231°
2026-05-06 10:52 -31.75863 149.91417 38135 ft 416 kts 231°
2026-05-06 10:52 -31.80159 149.86862 38132 ft 415 kts 231°
2026-05-06 10:53 -31.84431 149.82292 38139 ft 413 kts 233°
2026-05-06 10:53 -31.88425 149.77473 38139 ft 411 kts 234°
2026-05-06 10:54 -31.92425 149.72651 38136 ft 412 kts 234°
2026-05-06 10:54 -31.96424 149.67821 38137 ft 412 kts 234°
2026-05-06 10:55 -32.00425 149.62977 38139 ft 412 kts 234°
2026-05-06 10:55 -32.04420 149.58133 38143 ft 412 kts 234°
2026-05-06 10:56 -32.08418 149.53278 38143 ft 412 kts 234°
2026-05-06 10:56 -32.12382 149.48458 38144 ft 412 kts 234°
2026-05-06 10:57 -32.16370 149.43603 38142 ft 412 kts 234°
2026-05-06 10:57 -32.20355 149.38745 38140 ft 411 kts 234°
2026-05-06 10:58 -32.24333 149.33889 38174 ft 411 kts 234°
2026-05-06 10:58 -32.28317 149.29018 38143 ft 412 kts 234°
2026-05-06 10:59 -32.32299 149.24145 38147 ft 412 kts 234°
2026-05-06 10:59 -32.36279 149.19267 38154 ft 412 kts 234°
2026-05-06 11:00 -32.40254 149.14388 38140 ft 412 kts 234°
2026-05-06 11:00 -32.44227 149.09505 38148 ft 411 kts 234°
2026-05-06 11:01 -32.48199 149.04616 38156 ft 412 kts 234°
2026-05-06 11:01 -32.52166 148.99727 38154 ft 411 kts 234°
2026-05-06 11:02 -32.56131 148.94834 38156 ft 412 kts 234°
2026-05-06 11:02 -32.60092 148.89939 38182 ft 412 kts 234°
2026-05-06 11:03 -32.64055 148.85034 38163 ft 412 kts 234°
2026-05-06 11:03 -32.68014 148.80129 38167 ft 411 kts 234°
2026-05-06 11:04 -32.71965 148.75226 38165 ft 411 kts 234°
2026-05-06 11:04 -32.75913 148.70319 38166 ft 411 kts 234°
2026-05-06 11:05 -32.79865 148.65401 38171 ft 411 kts 234°
2026-05-06 11:05 -32.83811 148.60485 38177 ft 411 kts 234°
2026-05-06 11:06 -32.87759 148.55560 38182 ft 411 kts 235°
2026-05-06 11:06 -32.91702 148.50633 38180 ft 411 kts 235°
2026-05-06 11:07 -32.95640 148.45705 38183 ft 411 kts 235°
2026-05-06 11:07 -32.99577 148.40771 38186 ft 411 kts 235°
2026-05-06 11:08 -33.03515 148.35831 38186 ft 411 kts 235°
2026-05-06 11:08 -33.07450 148.30886 38188 ft 411 kts 235°
2026-05-06 11:09 -33.11382 148.25939 38205 ft 411 kts 234°
2026-05-06 11:09 -33.15708 148.21356 38185 ft 421 kts 226°
2026-05-06 11:10 -33.20351 148.17091 38191 ft 421 kts 226°
2026-05-06 11:10 -33.24944 148.12844 38189 ft 420 kts 226°
2026-05-06 11:11 -33.29568 148.08570 38202 ft 421 kts 226°
2026-05-06 11:11 -33.34197 148.04286 38185 ft 420 kts 226°
2026-05-06 11:12 -33.38820 148.00002 38181 ft 420 kts 226°
2026-05-06 11:12 -33.43435 147.95718 38180 ft 420 kts 226°
2026-05-06 11:13 -33.48049 147.91429 38179 ft 420 kts 226°
2026-05-06 11:13 -33.52662 147.87135 38180 ft 420 kts 226°
2026-05-06 11:14 -33.57279 147.82832 38183 ft 420 kts 226°
2026-05-06 11:14 -33.61889 147.78530 38182 ft 420 kts 226°
2026-05-06 11:15 -33.66500 147.74219 38185 ft 421 kts 226°
2026-05-06 11:15 -33.71121 147.69895 38185 ft 421 kts 226°
2026-05-06 11:16 -33.75739 147.65567 38185 ft 421 kts 226°
2026-05-06 11:16 -33.80357 147.61233 38189 ft 421 kts 226°
2026-05-06 11:17 -33.84987 147.56882 38187 ft 421 kts 226°
2026-05-06 11:17 -33.89574 147.52565 38184 ft 421 kts 226°
2026-05-06 11:18 -33.94187 147.48217 38188 ft 421 kts 226°
2026-05-06 11:18 -33.98797 147.43866 38216 ft 421 kts 226°
2026-05-06 11:19 -34.03416 147.39499 38182 ft 422 kts 226°
2026-05-06 11:19 -34.08029 147.35133 38185 ft 421 kts 226°
2026-05-06 11:20 -34.12639 147.30764 38184 ft 421 kts 226°
2026-05-06 11:20 -34.17250 147.26387 38205 ft 422 kts 226°
2026-05-06 11:21 -34.21863 147.22001 38175 ft 422 kts 226°
2026-05-06 11:21 -34.26478 147.17607 38175 ft 422 kts 226°
2026-05-06 11:22 -34.31089 147.13212 38189 ft 422 kts 227°
2026-05-06 11:22 -34.35698 147.08812 38182 ft 422 kts 227°
2026-05-06 11:23 -34.40322 147.04389 38169 ft 426 kts 227°
2026-05-06 11:23 -34.44919 146.99994 38171 ft 419 kts 227°
2026-05-06 11:24 -34.49515 146.95581 38170 ft 422 kts 227°
2026-05-06 11:24 -34.54129 146.91150 38165 ft 424 kts 227°
2026-05-06 11:25 -34.58744 146.86713 38171 ft 423 kts 227°
2026-05-06 11:25 -34.63330 146.82297 38170 ft 423 kts 227°
2026-05-06 11:26 -34.67944 146.77847 38181 ft 424 kts 227°
2026-05-06 11:26 -34.72567 146.73381 38168 ft 425 kts 227°
2026-05-06 11:27 -34.77196 146.68904 38166 ft 425 kts 227°
2026-05-06 11:27 -34.81628 146.64612 38164 ft 425 kts 227°
2026-05-06 11:28 -34.86258 146.60120 38156 ft 426 kts 227°
2026-05-06 11:28 -34.90889 146.55620 38152 ft 426 kts 227°
2026-05-06 11:29 -34.95521 146.51114 38151 ft 426 kts 227°
2026-05-06 11:29 -35.00155 146.46598 38185 ft 426 kts 227°
2026-05-06 11:30 -35.04794 146.42071 38149 ft 427 kts 227°
2026-05-06 11:30 -35.09436 146.37534 38150 ft 427 kts 227°
2026-05-06 11:31 -35.14075 146.32993 38146 ft 427 kts 227°
2026-05-06 11:31 -35.18714 146.28445 38153 ft 428 kts 227°
2026-05-06 11:32 -35.23356 146.23889 38145 ft 428 kts 227°
2026-05-06 11:32 -35.27997 146.19326 38141 ft 428 kts 227°
2026-05-06 11:33 -35.32629 146.14764 38167 ft 427 kts 227°
2026-05-06 11:33 -35.37236 146.10220 38143 ft 428 kts 227°
2026-05-06 11:34 -35.41894 146.05619 38139 ft 427 kts 227°
2026-05-06 11:34 -35.46487 146.01077 38135 ft 427 kts 227°
2026-05-06 11:35 -35.51105 145.96501 38134 ft 426 kts 228°
2026-05-06 11:35 -35.55716 145.91928 38129 ft 426 kts 228°
2026-05-06 11:36 -35.60322 145.87355 38128 ft 426 kts 228°
2026-05-06 11:36 -35.64924 145.82771 38141 ft 426 kts 228°
2026-05-06 11:37 -35.69522 145.78183 38121 ft 426 kts 228°
2026-05-06 11:37 -35.74117 145.73595 38125 ft 425 kts 228°
2026-05-06 11:38 -35.78701 145.69011 38116 ft 424 kts 228°
2026-05-06 11:38 -35.83283 145.64422 38125 ft 424 kts 228°
2026-05-06 11:39 -35.87089 145.60605 38124 ft 424 kts 228°
2026-05-06 11:39 -35.91657 145.56017 38115 ft 423 kts 228°
2026-05-06 11:40 -35.96214 145.51434 38156 ft 422 kts 228°
2026-05-06 11:40 -36.00770 145.46844 38121 ft 422 kts 228°
2026-05-06 11:41 -36.05312 145.42261 38113 ft 421 kts 228°
2026-05-06 11:41 -36.09847 145.37678 38105 ft 420 kts 228°
2026-05-06 11:42 -36.14345 145.33125 37780 ft 420 kts 228°
2026-05-06 11:42 -36.16601 145.30841 37513 ft 419 kts 228°
2026-05-06 11:42 -36.18854 145.28557 37246 ft 419 kts 229°
2026-05-06 11:42 -36.21112 145.26264 36824 ft 420 kts 229°
2026-05-06 11:43 -36.23377 145.23960 36176 ft 422 kts 229°
2026-05-06 11:43 -36.25657 145.21639 35314 ft 427 kts 229°
2026-05-06 11:43 -36.27954 145.19304 34614 ft 428 kts 229°
2026-05-06 11:44 -36.32569 145.14609 32989 ft 428 kts 229°
2026-05-06 11:44 -36.34867 145.12268 32189 ft 428 kts 229°
2026-05-06 11:44 -36.36949 145.10144 31452 ft 428 kts 229°
2026-05-06 11:44 -36.39212 145.07835 30901 ft 423 kts 229°
2026-05-06 11:45 -36.41485 145.05517 30321 ft 418 kts 229°
2026-05-06 11:45 -36.43726 145.03229 29594 ft 417 kts 230°
2026-05-06 11:45 -36.45952 145.00951 29073 ft 412 kts 230°
2026-05-06 11:45 -36.48149 144.98700 28535 ft 407 kts 229°
2026-05-06 11:46 -36.50322 144.96472 27968 ft 402 kts 229°
2026-05-06 11:46 -36.52463 144.94276 27410 ft 397 kts 229°
2026-05-06 11:46 -36.54576 144.92108 26855 ft 391 kts 229°
2026-05-06 11:46 -36.56660 144.89966 26299 ft 386 kts 229°
2026-05-06 11:47 -36.58726 144.87842 25697 ft 385 kts 229°
2026-05-06 11:47 -36.60775 144.85733 25209 ft 379 kts 229°
2026-05-06 11:47 -36.62797 144.83650 24661 ft 375 kts 229°
2026-05-06 11:47 -36.64793 144.81592 24130 ft 371 kts 229°
2026-05-06 11:48 -36.66769 144.79552 23561 ft 367 kts 229°
2026-05-06 11:48 -36.68725 144.77534 23007 ft 362 kts 229°
2026-05-06 11:48 -36.70646 144.75552 22481 ft 356 kts 229°
2026-05-06 11:48 -36.72537 144.73599 21974 ft 350 kts 229°
2026-05-06 11:49 -36.74407 144.71661 21439 ft 347 kts 229°
2026-05-06 11:49 -36.76250 144.69754 20941 ft 342 kts 229°
2026-05-06 11:49 -36.78080 144.67882 20423 ft 341 kts 226°
2026-05-06 11:49 -36.80200 144.66446 19907 ft 356 kts 210°
2026-05-06 11:50 -36.82683 144.65815 19348 ft 375 kts 193°
2026-05-06 11:50 -36.85337 144.66121 18763 ft 389 kts 180°
2026-05-06 11:50 -36.88013 144.66718 18133 ft 390 kts 179°
2026-05-06 11:50 -36.90680 144.67331 17504 ft 391 kts 179°
2026-05-06 11:51 -36.93345 144.67940 16936 ft 388 kts 180°
2026-05-06 11:51 -36.95996 144.68539 16351 ft 386 kts 180°
2026-05-06 11:51 -36.98632 144.69127 15750 ft 384 kts 180°
2026-05-06 11:51 -37.01256 144.69708 15161 ft 382 kts 180°
2026-05-06 11:52 -37.03869 144.70287 14573 ft 380 kts 180°
2026-05-06 11:52 -37.06466 144.70864 13990 ft 378 kts 180°
2026-05-06 11:52 -37.09058 144.71436 13365 ft 376 kts 180°
2026-05-06 11:52 -37.11622 144.72004 12788 ft 372 kts 179°
2026-05-06 11:53 -37.14162 144.72567 12212 ft 370 kts 179°
2026-05-06 11:53 -37.16687 144.73127 11647 ft 367 kts 178°
2026-05-06 11:53 -37.19189 144.73720 11083 ft 366 kts 176°
2026-05-06 11:53 -37.21684 144.74381 10382 ft 369 kts 174°
2026-05-06 11:54 -37.24160 144.75062 10130 ft 358 kts 174°
2026-05-06 11:54 -37.26545 144.75707 9939 ft 344 kts 173°
2026-05-06 11:54 -37.28835 144.76331 9790 ft 328 kts 174°
2026-05-06 11:54 -37.31001 144.76924 9517 ft 311 kts 174°
2026-05-06 11:55 -37.33088 144.77493 9048 ft 304 kts 173°
2026-05-06 11:55 -37.35012 144.78585 8549 ft 308 kts 147°
2026-05-06 11:55 -37.36623 144.80345 8053 ft 305 kts 142°
2026-05-06 11:55 -37.38192 144.82132 7576 ft 302 kts 145°
2026-05-06 11:56 -37.39735 144.83847 7101 ft 298 kts 141°
2026-05-06 11:56 -37.41249 144.85655 6627 ft 294 kts 142°
2026-05-06 11:56 -37.42732 144.87399 6181 ft 288 kts 143°
2026-05-06 11:56 -37.44182 144.89055 5967 ft 286 kts 144°
2026-05-06 11:57 -37.45674 144.90715 5777 ft 287 kts 145°
2026-05-06 11:57 -37.47172 144.92361 5443 ft 284 kts 146°
2026-05-06 11:57 -37.48637 144.93972 5107 ft 275 kts 146°
2026-05-06 11:57 -37.50072 144.95549 4783 ft 272 kts 146°
2026-05-06 11:58 -37.51465 144.97082 4670 ft 260 kts 147°
2026-05-06 11:58 -37.52815 144.98567 4511 ft 250 kts 147°
2026-05-06 11:58 -37.54103 144.99976 4268 ft 247 kts 147°
2026-05-06 11:58 -37.55389 145.01381 4001 ft 243 kts 147°
2026-05-06 11:59 -37.56669 145.02740 3791 ft 233 kts 155°
2026-05-06 11:59 -37.58087 145.03396 3694 ft 206 kts 183°
2026-05-06 11:59 -37.59446 145.03323 3603 ft 188 kts 192°
2026-05-06 11:59 -37.60715 145.03206 3512 ft 178 kts 191°
2026-05-06 12:00 -37.61904 145.03111 3390 ft 168 kts 192°
2026-05-06 12:00 -37.63117 145.03001 3316 ft 176 kts 193°
2026-05-06 12:00 -37.64347 145.02889 3243 ft 177 kts 192°
2026-05-06 12:00 -37.65567 145.02736 3157 ft 172 kts 204°
2026-05-06 12:01 -37.66448 145.02005 3048 ft 141 kts 233°
2026-05-06 12:01 -37.66900 145.00939 2922 ft 137 kts 253°
2026-05-06 12:01 -37.67029 144.99803 2768 ft 123 kts 264°
2026-05-06 12:01 -37.67015 144.98800 2628 ft 107 kts 267°
2026-05-06 12:02 -37.66989 144.97854 2395 ft 109 kts 265°
2026-05-06 12:02 -37.66935 144.96921 2130 ft 105 kts 270°
2026-05-06 12:02 -37.66870 144.95993 1886 ft 107 kts 267°
2026-05-06 12:02 -37.66833 144.95030 1684 ft 111 kts 270°
2026-05-06 12:03 -37.66753 144.94070 1546 ft 109 kts 268°
2026-05-06 12:03 -37.66693 144.93122 1445 ft 109 kts 268°
2026-05-06 12:03 -37.66650 144.92150 1272 ft 109 kts 267°
2026-05-06 12:03 -37.66596 144.91190 1151 ft 112 kts 270°
2026-05-06 12:04 -37.66544 144.90207 1045 ft 115 kts 270°
2026-05-06 12:04 -37.66497 144.89198 944 ft 116 kts 270°
2026-05-06 12:04 -37.66432 144.88191 840 ft 115 kts 271°
2026-05-06 12:04 -37.66375 144.87245 720 ft 101 kts 272°
2026-05-06 12:05 -37.66321 144.86321 648 ft 111 kts 270°
2026-05-06 12:05 -37.66265 144.85343 505 ft 111 kts 271°
2026-05-06 12:05 -37.66202 144.84402 428 ft 105 kts 272°
2026-05-06 12:05 -37.66159 144.83607 416 ft 70 kts 274°
2026-05-06 12:06 -37.66131 144.83186 412 ft 28 kts 274°
2026-05-06 12:06 -37.66166 144.82948 407 ft 29 kts 249°
2026-05-06 12:06 -37.66244 144.82751 397 ft 22 kts 237°
2026-05-06 12:06 -37.66383 144.82691 389 ft 23 kts 153°
2026-05-06 12:07 -37.66451 144.82870 386 ft 24 kts 96°
2026-05-06 12:07 -37.66462 144.83073 393 ft 23 kts 94°
2026-05-06 12:07 -37.66475 144.83272 396 ft 23 kts 94°
2026-05-06 12:07 -37.66486 144.83477 403 ft 24 kts 93°
2026-05-06 12:08 -37.66499 144.83700 405 ft 27 kts 95°
2026-05-06 12:08 -37.66529 144.83918 401 ft 23 kts 141°
2026-05-06 12:08 -37.66697 144.83968 396 ft 27 kts 170°
2026-05-06 12:08 -37.66897 144.84002 388 ft 31 kts 172°
2026-05-06 12:09 -37.67120 144.84045 381 ft 29 kts 172°
2026-05-06 12:09 -37.67330 144.84082 375 ft 32 kts 172°
2026-05-06 12:09 -37.67496 144.84155 371 ft 22 kts 111°
2026-05-06 12:09 -37.67481 144.84339 376 ft 21 kts 80°
2026-05-06 12:10 -37.67459 144.84533 379 ft 23 kts 81°
2026-05-06 12:10 -37.67439 144.84700 381 ft 9 kts 82°
2026-05-06 12:10 -37.67477 144.84735 380 ft 9 kts 171°
2026-05-06 12:10 -37.67531 144.84743 379 ft 0 kts 174°